Regional Weather Roundup
Issued by NWS

Home | Current Version | Previous Version | Text Only | Print | Product List | Glossary Off
Versions: 1 2 3 4 5 6 7 8 9 10 11 12 13 14 15 16 17 18 19 20 21 22 23 24 25 26 27 28 29 30 31 32 33 34 35 36 37 38 39 40 41 42 43 44 45 46 47 48 49 50

000
ASUS43 KLOT 171206
RWRIL

ILLINOIS REGIONAL WEATHER ROUNDUP
NATIONAL WEATHER SERVICE CHICAGO/ROMEOVILLE IL
700 AM CDT WED SEP 17 2014

NOTE: "FAIR" INDICATES FEW OR NO CLOUDS BELOW 12,000 FEET WITH NO
SIGNIFICANT WEATHER AND/OR OBSTRUCTIONS TO VISIBILITY.

* THESE STATIONS ARE NOT UNDER NWS QUALITY CONTROL. THEY ALSO MAY NOT
  REPORT WEATHER SUCH AS PRECIPITATION OR FOG.

ILZ001-002-007-009-015-016-024-171300-
NORTHWEST ILLINOIS

CITY           SKY/WX    TMP DP  RH WIND       PRES   REMARKS
MOLINE         PTCLDY    46  43  89 CALM      30.03S
6HR MIN TEMP:  44; 6HR MAX TEMP:  49;

STERLING*      CLEAR     43  37  81 SE5       30.04F
SAVANNA*       PTCLDY    42  41  95 CALM      30.03F
$$

ILZ003-004-008-010-011-017-018-171300-
NORTH CENTRAL ILLINOIS

CITY           SKY/WX    TMP DP  RH WIND       PRES   REMARKS
ROCKFORD       MOCLDY    42  39  89 CALM      30.07S
6HR MIN TEMP:  41; 6HR MAX TEMP:  45;

FREEPORT*      CLEAR     40  38  95 CALM      30.06F
ROCHELLE*      CLEAR     38  37  95 CALM      30.06S
DE KALB*       PTCLDY    42  39  89 CALM      30.06S
PERU*          PTCLDY    45  43  93 E3        30.05F
$$

ILZ005-006-012>014-019>023-171300-
NORTHEAST ILLINOIS

CITY           SKY/WX    TMP DP  RH WIND       PRES   REMARKS
CHICAGO-OHARE  MOCLDY    48  44  86 S3        30.05R
6HR MIN TEMP:  48; 6HR MAX TEMP:  55;

CHICAGO-MIDWAY PTCLDY    50  45  83 SW5       30.06R
6HR MIN TEMP:  49; 6HR MAX TEMP:  57;

AURORA         PTCLDY    40  37  89 CALM      30.06S
6HR MIN TEMP:  39; 6HR MAX TEMP:  42;

LANSING*       PTCLDY    43  43  99 CALM      30.06S
JOLIET*        PTCLDY    42  41  97 CALM      30.07S FOG
WAUKEGAN       CLEAR     45  44  97 CALM      30.04S
6HR MIN TEMP:  42; 6HR MAX TEMP:  48;

DUPAGE AIRPORT PTCLDY    44  42  93 CALM      30.05R
6HR MIN TEMP:  42; 6HR MAX TEMP:  46;

KANKAKEE*      FOG       43  43 100 CALM      30.07S VSB 3/4
WHEELING       PTCLDY    47  43  86 CALM      30.06R
6HR MIN TEMP:  45; 6HR MAX TEMP:  50;

MORRIS*        PTCLDY    43  43 100 CALM      30.05F FOG
ROMEOVILLE*    PTCLDY    44  44 100 CALM      30.06S
NORTHERLY ISL    N/A     53  44  71 W8          N/A
$$

LMZ740>746-171300-
SOUTHERN LAKE MICHIGAN

STATION/POSITION SKY/WX   TEMP    WIND        PRES    VSBY  WAVE
                          AIR SEA DIR/SP/G                  HT/PER
                          (F)     (DEG/KT/KT) (MB)    (MI)  (FT/S)
SOUTHERN BUOY              61 65  220/ 12/ 16 1017.4R         1
WAUKEGAN HARBOR            52     270/  6/  8   N/A
HARRISON CRIB              55     190/ 11/ 12   N/A
BURNHAM HARBOR             54     230/  7/  8   N/A
CALUMET HARBOR             50     210/  4/  5 1016.6R
MICHIGAN CITY              50     130/  9/ 13   N/A
MICHIGAN CITY 6N           55 65  170/ 12/ 14   N/A           1/ 2
ST. JOSEPH                 56 66  160/ 12/ 16   N/A           2/ 3
$$

ILZ025>027-034>036-040-047-049-050-058-095>099-171300-
WEST-CENTRAL ILLINOIS

CITY           SKY/WX    TMP DP  RH WIND       PRES   REMARKS
QUINCY         CLOUDY    53  50  89 SE6       30.00F
GALESBURG*     MOCLDY    48  46  95 CALM      30.03F FOG
MACOMB*        CLOUDY    46  46 100 NE3       30.05S FOG
JACKSONVILLE*  PTCLDY    49  47  96 CALM      30.04R FOG
PITTSFIELD*    PTCLDY    50  48  93 CALM      30.04R FOG
$$

ILZ028>032-037-038-041>044-048-051>054-059>061-171300-
CENTRAL ILLINOIS

CITY           SKY/WX    TMP DP  RH WIND       PRES   REMARKS
PONTIAC        MOCLDY    46  46 100 CALM      30.06S FOG
DECATUR        PTCLDY    46  44  93 CALM      30.07S
PEORIA         PTCLDY    51  47  86 CALM      30.04F
6HR MIN TEMP:  49; 6HR MAX TEMP:  52;

LACON*         MOCLDY    47  46  96 CALM      30.03F
LINCOLN*       CLEAR     46  44  95 CALM      30.05S FOG
SPRINGFIELD    PTCLDY    47  44  90 E6        30.03F
6HR MIN TEMP:  46; 6HR MAX TEMP:  48;

TAYLORVILLE      N/A     45  45 100 E3        30.05F FOG
$$

ILZ033-039-045-046-055>057-062-063-171300-
EAST-CENTRAL ILLINOIS

CITY           SKY/WX    TMP DP  RH WIND       PRES   REMARKS
CHAMPAIGN      PTCLDY    45  43  93 CALM      30.06F FOG
DANVILLE*      FOG       42  42 100 CALM      30.05S VSB 1
RANTOUL*       PTCLDY    46  43  90 CALM      30.08R
MATTOON        CLEAR     47  46  97 CALM      30.07S FOG
PARIS*         FOG       43  43 100 CALM      30.08S VSB 1/4
$$

ILZ079-100>102-171300-
SOUTHWEST ILLINOIS

CITY           SKY/WX    TMP DP  RH WIND       PRES   REMARKS
ALTON          PTCLDY    46  45  93 CALM      30.02F FOG
BELLEVILLE     CLEAR     48  48  99 CALM      30.01F
CAHOKIA*       CLEAR     49  48  97 NW6       30.03R
SPARTA*        PTCLDY    45  44  99 CALM      30.03F FOG
$$

ILZ064>066-069>071-074>076-080>082-084>086-088>090-092>094-171300-
SOUTH-CENTRAL ILLINOIS

CITY           SKY/WX    TMP DP  RH WIND       PRES   REMARKS
CARBONDALE     PTCLDY    44  42  93 CALM      30.05F FOG
6HR MIN TEMP:  43; 6HR MAX TEMP:  46;

CAIRO*         FOG       48  46  93 CALM      30.04F VSB 1/2
EFFINGHAM*     LGT SNOW  43  41  93 CALM      30.07F
MARION         CLEAR    N/A N/A N/A MISG      30.06F FOG
MT. VERNON     CLEAR     45  39  81 NE3       30.06F
CENTRALIA*     FOG       45  43  94 CALM      30.04F VSB 1/4
SALEM*         FOG       46  46  99 CALM      30.06F VSB<1/4
METROPOLIS*    CLEAR     46  46 100 CALM      30.04F FOG
$$

ILZ067-068-072-073-078-083-087-091-171300-
SOUTHEAST ILLINOIS

CITY           SKY/WX    TMP DP  RH WIND       PRES   REMARKS
LAWRENCEVILLE  FOG       45  44  97 N3        30.08S VSB<1/4
FLORA*         FOG       43  43 100 CALM      30.08S VSB<1/4
FAIRFIELD*     CLEAR    N/A N/A N/A CALM      30.08R FOG
HARRISBURG*    FOG       44  44 100 CALM      30.07F VSB 1
ROBINSON*      FOG       45  45 100 CALM      30.09S VSB 1/4
CARMI*         FOG       46  46 100 CALM      30.07S VSB 1/4
$$

ABBREVIATIONS USED IN REMARKS
   TC - TEMPERATURE IN CELSIUS
  WCI - WIND CHILL INDEX
   HX - HEAT INDEX
  VSB - VISIBILITY
$$



USA.gov is the U.S. government's official web portal to all federal, state and local government web resources and services.